DELTA 1 DEB, 7084

Orbit data source: Space-Track

DELTA 1 DEB, 7084 is space debris in SSO originally from a launch on Tue, 06 Nov 1973 UTC launched from the Air Force Western Test Range (AFWTR). Debris objects in space refer to the collection of defunct objects orbiting the Earth. Examples of debris include non-operational satellites, rocket bodies, and fragments generated from explosions, collisions, or faulty payload assembly.

Loading next visibility...
Identifier
7084, 1973-086CC
Orbit
SSO
Country
Flag of USUS
Related business
Manufacturer
Unknown
Mission
Spacecraft
Bus & Motor
Unknown
Mass
Unknown
Launch date (UTC)
1973-11-06 (53 years ago)
Launch vehicle
Unknown
Launch site
Air Force Western Test Range (AFWTR)
Object type
Payload
Rocket body
Debris
Shape & HBR
Unknown shape, 0.2 m
Radar Cross Section
Medium (>0.1 m² and <1 m²)

Expand to show TLE details & history
Last TLE update: 23 hours ago

TLE from 23 hours ago
0 DELTA 1 DEB
1  7084U 73086CC  26254.76562102 -.00000021  00000-0  18614-3 0  9998
2  7084 101.8642 194.8810 0152949 190.2395 246.5178 12.25198962362888
Epoch: 2026-09-11T18:22Z
TLE epoch observation values (Epoch: 2026-09-11T18:22:29.656Z)
Latitude
71.15697°
Longitude
-109.30668°
Altitude
1,632.097 km
Speed
7.039 km/s
True Right ascension
10h 28m 24s
True Declination
71° 03' 47"
Sunlit
Object was in daylight at epoch
Visualization orbit readout
Latitude
Unknown
Longitude
Unknown
Altitude
Unknown
Speed
Unknown
Apparent Right ascension
Unknown
Apparent Declination
Unknown
Sunlit
N/A
Visualization observer readout
Local Sidereal Time
10:02:54
Azimuth
Unknown
Elevation
Unknown
Doppler factor
Unknown
Orbital elements
Apogee altitude
1,689.091 km
Perigee altitude
1,446.034 km
Semi-major axis
7,945.699 km
Eccentricity
0.01529
Inclination
101.8642°
RAAN
194.881°
Arg. of periapsis
190.2395°
True anomaly
244.92265°
Mean anomaly
246.5178°
Eccentric anomaly
245.71899°
Mean motion
3.0644 °/min
Orbital period
117.48 mins
BSTAR
0.00018614
Loading maneuver chart data...
Computing Atmospheric mass density...
Loading historical data...
Loading historical data...
Loading historical data...
Loading historical data...
Loading historical data...
Loading historical data...
Loading historical data...

Documentation

Showing up to 5 results
|